This demonstration page uses our WeatherBlox Daily Observations layout. Learn more.

Left ArrowRight Arrow

47.50024, -111.30081

Hourly Observations for June 25, 2022

Temp ( °F °C ) Dew Point ( °F °C ) Humidity (%) Winds ( mph kmh ) Pressure ( in mb ) Visibility ( mi km ) Precip ( " mm )
12:53 am 00:53 Mostly Cloudy 42 5.6 39 3.9 89 89 WSW 6 9 30.39 1029 10 16 0.00 0.00
1:53 am 01:53 Cloudy 45 7.2 40 4.4 83 83 SW 5 7 30.38 1029 10 16 0.00 0.00
2:53 am 02:53 Cloudy 44 6.7 39 3.9 83 83 SW 6 9 30.43 1030 10 16 0.00 0.00
3:53 am 03:53 Clear 40 4.4 37 2.8 89 89 SW 8 13 30.44 1031 10 16 0.00 0.00
4:53 am 04:53 Mostly Cloudy 40 4.4 37 2.8 89 89 SW 7 11 30.43 1031 10 16 0.00 0.00
5:53 am 05:53 Mostly Cloudy 39 3.9 37 2.8 93 93 SSW 6 9 30.45 1031 10 16 0.00 0.00
6:53 am 06:53 Sunny 45 7.2 40 4.4 83 83 SW 7 11 30.43 1031 10 16 0.00 0.00
7:53 am 07:53 Sunny 50 10 40 4.4 68 68 WSW 8 13 30.45 1031 10 16 0.00 0.00
8:53 am 08:53 Sunny 53 11.7 40 4.4 61 61 W 8 13 30.46 1032 10 16 0.00 0.00
9:53 am 09:53 Mostly Sunny 55 12.8 38 3.3 53 53 Calm 30.48 1032 10 16 0.00 0.00
10:53 am 10:53 Mostly Cloudy 56 13.3 37 2.8 49 49 NW 7 11 30.47 1032 10 16 0.00 0.00
11:53 am 11:53 Mostly Cloudy 59 15 37 2.8 44 44 VRB 5 7 30.47 1032 10 16 0.00 0.00
12:53 pm 12:53 Mostly Cloudy 60 15.6 36 2.2 41 41 NE 5 7 30.46 1032 10 16 0.00 0.00
1:53 pm 13:53 Cloudy 60 15.6 36 2.2 41 41 SSE 7 11 30.45 1031 10 16 0.00 0.00
2:34 pm 14:34 Partly Cloudy 63 17.2 37 2.8 38 38 S 6 9 30.30 1026 10 16 0.00 0.00
2:53 pm 14:53 Sunny 65 18.3 36 2.2 34 34 VRB 6 9 30.42 1030 10 16 0.00 0.00
3:53 pm 15:53 Mostly Sunny 65 18.3 35 1.7 33 33 WSW 5 7 30.42 1030 10 16 0.00 0.00
4:53 pm 16:53 Mostly Cloudy 66 18.9 34 1.1 30 30 WSW 8 13 30.41 1030 10 16 0.00 0.00
5:53 pm 17:53 Sunny 65 18.3 33 0.6 31 31 S 6 9 30.41 1030 10 16 0.00 0.00
6:53 pm 18:53 Sunny 66 18.9 33 0.6 29 29 Calm 30.38 1029 10 16 0.00 0.00
7:53 pm 19:53 Sunny 66 18.9 32 0 28 28 NNE 3 6 30.37 1028 10 16 0.00 0.00
8:53 pm 20:53 Sunny 61 16.1 34 1.1 36 36 S 3 6 30.38 1029 10 16 0.00 0.00
9:53 pm 21:53 Clear 56 13.3 34 1.1 44 44 SE 6 9 30.39 1029 10 16 0.00 0.00
10:53 pm 22:53 Clear 53 11.7 35 1.7 51 51 SSE 8 13 30.41 1030 10 16 0.00 0.00
11:53 pm 23:53 Clear 52 11.1 33 0.6 49 49 SSE 7 11 30.40 1030 10 16 0.00 0.00

Powered by AerisWeather